Weather in Kirgintsevo

Russia / Novosibirsk Oblast     54°14′15″N   77°02′03″E
temp.,
°C
wind,
m/s
gust,
m/s
humid.,
%
clouds,
%
prec.,
mm/h
press.,
hPa
HPBL,
m
26 february, fri
fri2601:00−29wsw479762 0.0 102286
04:00−30wsw599959 0.0 1024146
07:00−30wsw499877 0.0 1028177
10:00−30wsw499795 0.0 1030201
13:00−26wsw589492 0.0 1032399
16:00−24wsw5892100 0.0 1033515
19:00−27sw469798 0.0 103495
22:00−28sw469888 0.0 103689
27 february, sat
sat2701:00−30sw349990 0.0 103651
04:00−30sw359898 0.0 103688
07:00−32sw339888 0.0 103622
10:00−31ssw349847 0.0 103765
13:00−28ssw349532 0.0 1037208
16:00−26ssw359428 0.0 1037263
19:00−28s349623 0.0 103632
22:00−29s44970 0.0 103652
28 february, sun
sun2801:00−29sse449911 0.0 103555
04:00−29sse479816 0.0 103484
07:00−27se599657 0.0 1032154
10:00−23se61191100 0.0 1029259
13:00−19se71090100 0.0 1026327
16:00−15se71294100 0.2 1022467
19:00−11se71294100 0.9 1018518
22:00−8se61295100 1.0 1014470
1 march, mon
mon101:00−5se51096100 2.8 1009469
04:00−3se4797100 1.9 1006316
07:00−4wnw149899 2.8 1006167
10:00−3w389798 0.2 1007358
13:000sw6109899 0.6 1008610
16:000sw61198100 0.2 1007743
19:000sw51192100 0.4 1006585
22:00−2w7109497 0.3 1009506
2 march, tue
tue201:00−11wnw6109593 0.4 1012275
04:00−16w4896100 0.1 1014184
07:00−18w469899 0.1 1016101
10:00−19wsw359777 0.0 101787
13:00−16wsw349370 0.0 1017232
16:00−14wsw349199 0.0 1017317
19:00−14sw1296100 0.1 101632
22:00−15ssw1196100 0.3 101620